Temperature
30 32 32 32 32 32 32 32 32 32 31 32 31 31 30 29 28 27 26 25 24 23 22 21 20 20 19 19 19 19 19 19 18 18 18 18 18 18 17 18 17 17 17 17
31 31 32 32 32 32 32 32 32 32 31 31 31 31 30 29 28 27 27 26 25 24 22 21 20 20 19 19 19 19 19 19 18 18 18 18 18 17 17 17 17 17 17 17
31 32 31 31 31 31 32 32 32 31 31 31 31 31 30 29 28 27 26 26 25 24 23 21 20 20 19 19 19 19 19 19 19 18 18 18 17 17 17 17 17 17 17 17
31 31 30 31 31 32 31 32 32 31 31 32 31 31 30 30 29 28 27 26 25 24 23 21 20 20 19 19 19 19 19 19 19 18 18 18 17 18 18 17 17 17 17 17
30 30 30 31 31 31 31 31 31 31 31 31 31 31 31 30 30 29 28 27 25 24 23 21 21 20 20 19 19 19 19 19 18 18 18 18 17 18 18 17 17 17 17 17
31 30 31 31 31 31 31 31 31 31 32 30 30 30 30 31 30 29 29 27 25 24 23 21 20 20 19 19 19 19 19 19 18 18 18 18 17 18 17 17 17 17 17 17
29 30 31 31 31 31 31 31 30 30 30 30 30 30 30 30 29 29 28 27 25 24 23 22 21 20 19 19 19 19 18 18 18 18 17 17 17 17 17 17 17 17 17 17
29 30 30 31 31 31 31 32 30 30 30 31 30 30 30 29 28 28 27 26 25 24 23 22 21 20 20 19 19 19 19 18 18 18 18 17 17 17 17 17 17 17 17 17
30 30 31 31 31 32 31 31 33 31 31 30 31 30 30 29 29 28 28 27 26 24 23 22 21 21 20 19 19 19 19 18 18 18 18 18 18 17 17 17 17 17 17 17
31 30 30 30 30 30 31 32 31 31 29 29 30 30 30 29 29 29 28 27 26 24 23 23 22 21 20 20 19 19 19 18 18 18 18 18 18 18 17 17 17 17 17 17
30 30 30 30 30 30 30 30 31 31 31 30 30 30 31 30 29 29 28 27 26 25 24 23 22 21 20 20 19 19 19 18 18 18 18 18 17 17 17 17 17 17 17 17
30 30 30 30 31 31 31 31 31 30 29 30 30 30 30 30 29 28 27 26 25 24 23 23 22 21 20 20 19 19 18 18 18 18 18 18 18 17 17 17 17 17 17 17
29 29 28 29 29 29 30 31 31 31 30 30 30 30 29 29 28 27 27 26 24 23 23 22 21 21 20 20 19 19 18 18 18 18 18 18 17 17 17 17 17 17 17 17
29 29 29 29 30 30 30 30 30 31 30 30 30 30 29 29 28 27 26 25 24 23 22 22 21 20 20 19 19 19 18 18 18 17 17 17 17 17 17 17 17 17 16 16
29 28 29 30 30 31 30 30 30 30 31 30 30 30 30 29 28 26 25 24 24 23 22 21 21 20 20 19 19 19 18 18 18 17 17 17 17 17 17 17 17 17 16 16
27 28 28 29 29 30 30 30 30 30 30 30 30 30 30 28 27 25 25 24 23 23 22 21 20 20 19 19 19 18 18 18 17 17 17 17 17 17 17 16 16 16 16 16
27 27 28 28 29 29 28 29 30 30 30 30 30 29 28 27 26 25 24 24 23 22 22 21 20 20 19 19 19 18 18 18 17 17 17 16 16 16 16 16 16 16 16 15
26 26 28 28 27 27 29 29 29 29 29 29 29 28 27 26 24 23 23 23 22 22 21 21 20 20 19 19 19 18 18 18 17 17 17 16 16 16 16 16 16 16 15 15
27 26 28 28 27 28 27 27 28 28 28 28 28 27 26 25 24 24 22 21 21 21 20 20 20 19 19 19 18 18 18 17 17 17 17 16 16 16 16 16 15 15 15 15
25 25 27 27 27 27 28 28 27 28 27 27 26 26 25 25 27 25 21 20 20 20 20 19 19 19 18 18 18 18 18 17 17 17 16 16 16 16 15 15 15 15 15 14
25 25 27 27 27 28 27 26 26 27 27 25 25 24 24 24 24 21 19 19 19 19 19 18 18 18 18 18 18 17 17 17 17 16 16 16 16 15 15 15 15 14 14 14
26 26 26 27 27 27 25 25 27 25 23 23 23 23 22 21 20 19 19 18 18 18 18 18 18 18 17 17 17 17 17 16 16 16 16 15 15 15 15 14 14 14 14 13
25 25 27 26 25 22 22 23 22 22 22 22 22 21 21 20 19 19 18 18 18 17 17 17 17 17 17 17 17 16 16 16 16 15 15 15 15 15 14 14 14 14 13 13
22 21 24 23 22 21 21 21 21 21 21 21 21 20 20 19 19 18 17 17 17 17 17 17 16 16 16 16 16 16 16 16 16 15 15 15 14 14 14 13 13 13 13 13
22 22 23 22 21 21 20 20 20 20 20 20 20 20 19 19 18 17 17 16 16 16 16 16 15 15 15 15 15 15 15 15 15 15 14 14 14 14 14 13 13 13 12 12
22 22 23 23 21 22 20 19 19 19 19 19 19 19 18 18 17 17 16 16 16 16 15 15 15 15 15 15 15 15 15 15 15 14 14 14 13 13 13 13 13 13 12 12
Wind_Speed
4 7 7 5 3 1 2 2 1 2 1 2 1 1 3 5 5 6 6 6 6 5 6 6 7 7 8 7 7 7 7 7 6 6 6 5 5 5 5 5 6 7 7 6
8 8 3 2 3 4 5 4 2 3 1 2 1 1 3 4 4 4 5 6 6 6 6 6 7 8 8 8 7 7 8 8 8 6 5 4 3 4 5 5 5 7 7 7
11 4 4 6 6 6 6 5 2 1 2 4 3 4 5 5 4 4 4 4 5 6 7 7 7 7 8 7 8 7 7 7 7 6 5 4 3 4 4 5 5 7 7 8
8 5 6 7 7 7 6 2 2 3 5 1 3 1 5 4 4 5 5 5 5 6 6 6 7 7 7 7 7 7 7 7 7 7 6 6 5 5 4 4 4 5 6 7
8 8 8 9 6 6 1 2 3 4 4 4 2 4 4 4 3 4 4 5 6 6 6 6 6 6 6 6 6 6 6 7 7 7 7 6 6 5 4 4 5 5 5 6
6 5 7 6 4 4 5 5 4 6 6 4 1 4 2 3 2 3 4 5 6 6 6 6 5 5 5 5 6 6 7 6 6 6 6 7 6 5 5 5 4 5 4 5
9 9 7 6 8 8 8 7 6 6 6 2 2 3 2 4 2 2 4 5 6 6 7 7 6 6 5 6 6 6 6 6 6 6 6 6 6 5 5 5 4 4 4 4
12 12 11 9 10 8 10 10 7 5 4 3 4 2 2 3 3 4 5 6 7 7 7 7 7 6 5 5 5 5 5 5 6 6 6 5 5 4 4 4 3 4 3 3
11 10 9 7 6 7 9 9 6 6 4 4 3 2 3 4 5 6 6 7 7 7 7 7 6 6 6 5 5 5 5 5 5 5 5 5 4 4 3 3 3 3 3 3
6 8 10 8 7 3 5 7 6 7 5 6 4 5 3 5 5 5 6 6 7 7 7 7 6 6 5 5 5 5 5 4 4 4 4 4 4 3 3 3 2 2 3 2
8 9 10 11 11 12 8 8 7 7 6 6 4 2 3 4 4 5 5 6 6 7 7 7 6 5 5 5 5 5 5 5 4 4 3 3 3 3 2 2 2 2 2 2
11 8 10 11 6 5 11 10 10 8 6 6 6 2 5 3 3 4 5 6 7 7 7 7 7 6 5 5 5 5 5 5 5 4 4 3 3 2 2 2 1 1 1 1
10 8 10 10 9 8 10 10 10 9 6 7 7 3 7 4 4 4 5 6 7 8 8 8 7 6 5 5 5 5 5 5 5 5 5 4 4 3 2 2 1 1 1 0
10 10 12 12 11 14 13 11 11 12 9 8 7 3 3 3 3 4 5 6 7 8 8 8 7 6 6 5 5 5 5 5 5 5 5 4 3 3 3 2 2 2 1 1
9 11 11 7 3 9 12 13 13 13 11 9 6 5 3 2 3 4 5 6 7 8 8 8 7 7 6 6 6 5 5 5 4 4 4 4 3 3 3 3 2 2 2 1
8 9 11 10 8 8 10 11 12 12 10 9 7 5 1 2 3 4 5 6 6 6 7 7 7 7 7 6 6 5 5 5 4 4 4 3 3 3 3 3 3 3 2 2
10 9 11 12 11 10 12 12 12 10 8 8 7 3 2 2 3 3 4 5 5 5 5 6 7 7 6 6 6 5 5 5 4 4 3 3 3 3 3 3 3 3 3 3
11 11 10 10 10 14 6 5 8 8 6 5 3 2 1 2 3 4 3 3 4 4 5 5 6 6 6 6 6 5 5 5 5 4 3 3 3 3 3 3 4 3 3 3
10 11 10 11 14 11 6 6 8 8 6 4 4 3 3 4 5 5 4 3 3 4 4 4 5 6 6 6 6 6 5 5 5 4 4 4 3 3 4 3 4 4 3 3
8 9 11 11 13 13 8 9 5 6 6 4 4 4 4 5 4 3 4 4 4 4 4 5 5 6 6 6 6 6 5 4 4 3 3 3 3 3 4 4 3 3 3 3
12 10 14 13 11 8 6 8 8 9 4 5 5 5 4 2 4 6 5 5 5 5 5 6 6 6 6 6 5 5 4 3 3 3 3 3 3 3 3 4 3 4 4 4
11 12 12 12 13 7 7 8 6 3 6 6 5 5 5 7 7 7 6 6 6 6 6 6 6 6 6 5 5 5 3 3 3 3 3 3 3 3 3 4 4 4 4 4
4 3 5 4 3 6 5 4 5 4 6 6 6 6 7 8 8 7 7 6 6 6 6 6 6 6 6 5 4 4 3 3 3 3 3 2 2 3 3 4 4 4 4 3
3 0 2 3 5 6 5 5 5 5 6 7 7 7 8 8 8 7 6 6 6 6 6 6 6 6 5 4 4 3 3 3 3 3 2 2 2 3 4 3 3 3 3 3
3 4 4 4 7 7 6 6 7 7 8 8 8 8 8 8 7 7 5 5 5 5 5 5 5 5 4 4 3 3 3 3 3 3 2 2 2 4 4 3 2 2 2 1
2 2 3 4 6 5 7 6 8 9 8 8 8 8 7 7 7 6 5 5 5 5 4 4 4 4 4 3 3 3 2 2 2 2 2 2 3 3 3 4 4 7 5 6
Wind_Direction
207 217 210 202 221 269 243 234 176 81 57 256 204 140 146 161 172 174 178 177 178 181 172 174 180 182 181 183 188 191 190 186 193 194 197 200 210 218 220 221 215 215 220 214
199 209 188 161 183 208 220 225 186 134 91 269 239 175 143 162 178 186 186 182 183 175 168 170 178 182 186 185 189 191 192 191 198 195 193 200 210 222 224 226 216 219 217 216
214 165 157 188 193 208 218 238 231 180 178 202 252 190 158 154 169 179 187 183 179 175 170 169 178 182 184 186 190 193 193 193 199 195 192 198 202 222 221 215 216 219 220 219
215 174 185 202 206 225 209 217 234 219 241 202 284 276 136 151 163 171 177 177 174 169 163 162 170 179 184 185 186 189 188 190 192 192 200 206 213 216 223 221 217 216 222 225
195 192 198 208 209 227 183 150 205 226 244 259 249 287 116 142 142 144 160 168 164 161 160 162 165 172 178 179 181 182 184 188 191 194 201 213 221 222 220 221 217 227 220 221
194 191 216 211 182 190 157 169 182 222 239 241 303 287 114 98 88 118 133 148 156 157 158 159 159 160 167 171 177 179 183 189 191 197 203 214 220 226 227 226 229 226 221 223
198 198 195 197 185 180 202 214 216 219 223 209 126 264 66 68 86 115 130 138 148 154 157 158 161 163 166 173 176 178 182 187 190 196 206 213 218 224 229 237 234 238 235 230
197 197 193 198 213 203 210 228 241 252 239 181 178 233 90 95 119 135 133 133 140 147 154 156 160 163 166 169 174 176 177 181 186 193 201 209 215 225 231 237 253 238 240 244
204 194 172 191 211 222 204 226 250 251 263 253 187 161 145 138 144 146 141 139 139 142 149 154 158 161 164 167 172 179 174 177 186 192 193 197 205 224 235 235 242 248 249 242
212 198 176 170 177 193 242 211 218 241 244 243 208 209 177 160 161 158 156 150 143 147 151 152 154 160 161 161 161 169 171 176 184 192 196 188 192 200 219 240 249 260 256 253
216 208 179 184 204 193 186 202 219 233 250 259 231 176 99 157 158 161 162 157 152 154 151 150 149 151 157 157 158 165 163 164 175 183 185 183 184 185 200 223 242 253 262 247
207 217 199 193 185 236 212 210 206 219 222 251 270 138 105 136 142 150 152 153 153 151 149 148 146 145 148 152 154 157 164 166 170 171 173 172 176 179 196 207 224 244 254 236
186 205 197 190 191 195 208 210 217 230 223 237 248 164 115 134 144 145 147 150 155 156 153 149 147 148 147 145 145 150 160 163 167 166 166 169 174 176 189 195 176 132 108 150
197 214 224 218 206 191 198 201 210 221 227 229 243 245 151 162 162 152 150 155 156 158 157 156 155 154 149 144 145 150 156 157 160 160 160 163 171 177 180 168 153 145 127 105
206 213 221 235 202 197 203 202 204 221 240 247 235 239 235 185 161 153 154 156 158 160 160 162 161 157 156 153 152 151 152 155 156 156 154 155 158 164 168 157 153 143 132 133
209 218 207 211 203 206 210 206 206 218 231 241 246 239 177 131 139 149 155 160 163 164 165 164 163 161 162 161 158 156 153 154 157 159 155 148 147 148 148 146 143 137 130 127
195 205 209 209 199 207 214 209 208 209 219 231 236 230 154 157 153 157 158 159 162 164 162 165 165 165 165 163 159 158 156 152 153 151 145 144 142 136 140 142 141 135 127 119
202 207 212 209 194 219 204 183 208 208 210 223 227 193 169 135 124 116 120 142 150 157 162 163 160 158 158 155 151 148 145 146 146 146 150 158 158 149 142 147 143 140 131 118
207 203 213 213 211 211 178 180 193 200 206 202 200 177 141 130 147 123 92 114 135 144 150 149 150 146 139 138 138 141 143 147 149 153 159 164 172 171 156 150 149 142 136 126
188 210 216 215 223 218 194 161 178 200 200 163 170 160 153 167 203 119 91 96 100 110 120 124 126 125 125 130 137 141 144 147 155 162 165 163 169 167 161 152 148 141 142 139
183 198 214 214 221 216 135 149 175 208 166 131 148 148 159 142 55 99 103 91 90 95 106 115 116 113 115 123 131 134 135 143 146 148 147 148 155 159 154 140 143 145 140 128
197 196 206 216 221 199 137 170 191 95 98 126 131 129 116 103 102 106 101 93 90 91 98 107 110 107 107 113 121 121 119 120 132 144 149 151 153 155 140 142 144 145 142 142
216 229 204 217 191 95 129 119 95 112 119 123 123 117 122 121 115 107 99 92 85 83 86 92 99 100 95 93 102 106 98 106 123 133 137 140 141 134 136 146 145 149 157 165
157 157 157 135 117 120 120 116 116 119 122 123 121 121 123 120 114 107 99 92 87 83 86 91 94 92 85 78 79 82 87 99 113 118 126 132 137 129 128 138 144 151 163 180
148 174 164 145 133 129 117 109 114 118 121 120 117 115 115 117 115 110 103 93 85 80 83 87 94 95 90 83 81 82 93 111 116 124 141 151 149 139 134 120 92 132 99 98
172 186 194 157 152 145 130 123 121 120 117 114 114 111 109 111 114 110 103 95 92 88 90 94 96 95 90 87 84 81 93 113 129 141 150 146 143 144 143 135 106 59 67 65
Height
1519 1516 1515 1513 1513 1514 1516 1518 1520 1520 1519 1519 1520 1522 1524 1528 1530 1533 1536 1539 1541 1543 1545 1546 1547 1548 1549 1550 1551 1553 1554 1555 1557 1558 1559 1561 1562 1564 1565 1566 1567 1568 1569 1571
1518 1516 1515 1516 1517 1517 1518 1520 1520 1520 1520 1520 1520 1522 1523 1527 1529 1532 1534 1537 1540 1542 1544 1545 1546 1547 1548 1549 1550 1551 1552 1553 1555 1556 1557 1559 1561 1562 1563 1564 1565 1566 1567 1569
1514 1514 1517 1518 1519 1519 1518 1519 1519 1521 1521 1519 1520 1522 1523 1525 1529 1532 1534 1536 1538 1540 1542 1544 1545 1546 1546 1547 1548 1549 1550 1552 1553 1554 1556 1557 1558 1560 1562 1562 1563 1564 1566 1567
1513 1515 1518 1518 1518 1517 1521 1516 1518 1521 1522 1520 1523 1527 1522 1522 1525 1528 1531 1534 1536 1539 1541 1542 1544 1545 1545 1546 1547 1548 1549 1550 1552 1553 1554 1556 1557 1559 1560 1561 1562 1563 1564 1565
1515 1516 1518 1519 1517 1516 1517 1517 1518 1519 1520 1522 1520 1524 1522 1519 1523 1524 1528 1531 1535 1537 1540 1541 1542 1543 1545 1546 1546 1547 1548 1549 1550 1551 1553 1554 1556 1557 1558 1559 1560 1561 1562 1562
1512 1516 1515 1514 1516 1517 1519 1519 1520 1518 1517 1532 1526 1528 1527 1518 1522 1523 1526 1530 1534 1536 1539 1540 1542 1543 1544 1545 1546 1546 1547 1548 1549 1550 1551 1552 1554 1555 1556 1557 1558 1558 1559 1560
1517 1514 1514 1515 1516 1518 1517 1522 1530 1533 1532 1531 1525 1527 1526 1520 1522 1523 1526 1530 1533 1535 1538 1539 1541 1542 1543 1544 1545 1545 1546 1547 1548 1549 1550 1551 1552 1553 1554 1555 1556 1556 1557 1558
1518 1518 1511 1512 1512 1514 1515 1515 1531 1540 1536 1527 1526 1526 1520 1520 1523 1525 1527 1529 1532 1535 1537 1539 1540 1541 1542 1543 1544 1545 1546 1547 1547 1548 1549 1550 1551 1552 1553 1553 1554 1555 1555 1556
1508 1512 1508 1510 1511 1510 1515 1513 1508 1519 1525 1529 1523 1522 1519 1520 1522 1524 1526 1529 1532 1534 1536 1538 1540 1541 1542 1543 1544 1545 1545 1546 1547 1548 1548 1549 1549 1550 1551 1552 1552 1553 1553 1553
1502 1511 1508 1511 1512 1514 1510 1509 1516 1520 1537 1538 1530 1525 1521 1520 1521 1522 1525 1528 1531 1534 1536 1538 1540 1541 1542 1543 1543 1544 1545 1545 1546 1547 1548 1549 1549 1549 1550 1550 1551 1551 1551 1551
1501 1509 1510 1510 1511 1511 1516 1516 1514 1516 1518 1531 1535 1527 1511 1516 1518 1521 1524 1527 1530 1533 1535 1537 1539 1540 1542 1542 1543 1543 1544 1544 1546 1547 1547 1548 1548 1549 1549 1549 1549 1549 1549 1549
1502 1503 1508 1507 1505 1505 1505 1507 1513 1523 1528 1524 1523 1523 1512 1515 1518 1521 1524 1527 1530 1533 1535 1537 1539 1540 1541 1541 1542 1543 1543 1544 1545 1545 1546 1547 1547 1547 1548 1548 1548 1548 1547 1547
1502 1506 1517 1517 1515 1511 1508 1507 1507 1509 1516 1520 1523 1522 1513 1516 1519 1521 1524 1527 1530 1532 1535 1537 1538 1539 1540 1541 1541 1542 1543 1544 1544 1544 1545 1546 1546 1546 1547 1547 1547 1546 1546 1546
1501 1502 1506 1510 1504 1501 1508 1509 1507 1509 1514 1518 1517 1514 1513 1514 1517 1521 1524 1527 1529 1532 1534 1535 1537 1538 1539 1540 1541 1541 1542 1543 1543 1544 1544 1545 1545 1545 1546 1545 1545 1545 1545 1545
1500 1502 1501 1496 1494 1495 1500 1504 1507 1508 1506 1510 1510 1511 1510 1513 1517 1521 1524 1526 1529 1531 1533 1534 1536 1537 1538 1539 1540 1540 1541 1542 1542 1543 1544 1544 1544 1544 1544 1544 1544 1544 1544 1544
1499 1500 1501 1503 1499 1499 1502 1501 1503 1505 1505 1505 1507 1509 1510 1514 1518 1521 1523 1526 1528 1530 1532 1534 1535 1536 1537 1538 1539 1540 1540 1541 1542 1542 1543 1543 1543 1543 1543 1543 1543 1543 1543 1543
1498 1501 1504 1504 1500 1504 1509 1501 1501 1503 1503 1504 1507 1508 1511 1514 1518 1521 1523 1525 1527 1529 1531 1532 1534 1535 1536 1537 1538 1539 1539 1540 1541 1541 1542 1542 1542 1542 1543 1543 1543 1543 1542 1542
1497 1500 1499 1499 1508 1520 1501 1496 1498 1501 1503 1504 1506 1509 1512 1516 1519 1522 1523 1525 1526 1528 1529 1531 1532 1533 1534 1535 1537 1537 1538 1538 1539 1539 1540 1541 1541 1541 1541 1541 1541 1541 1542 1542
1494 1498 1497 1499 1507 1505 1502 1500 1500 1503 1505 1505 1507 1510 1513 1516 1519 1521 1524 1525 1526 1527 1528 1529 1531 1532 1533 1534 1535 1536 1537 1538 1538 1538 1538 1539 1539 1539 1539 1539 1539 1540 1540 1541
1496 1496 1495 1499 1504 1508 1497 1497 1501 1504 1508 1507 1509 1511 1514 1515 1513 1519 1524 1524 1525 1526 1527 1528 1529 1531 1531 1532 1534 1535 1536 1537 1537 1537 1537 1537 1538 1538 1538 1537 1538 1538 1539 1540
1494 1497 1494 1496 1500 1493 1494 1499 1503 1510 1507 1508 1510 1513 1515 1516 1517 1522 1523 1524 1525 1526 1527 1528 1528 1529 1530 1531 1533 1534 1535 1535 1536 1536 1536 1536 1536 1536 1536 1536 1537 1537 1537 1538
1486 1489 1494 1492 1498 1499 1499 1500 1500 1504 1507 1509 1512 1514 1516 1519 1521 1523 1524 1525 1526 1527 1527 1528 1528 1529 1530 1531 1532 1533 1533 1533 1534 1534 1535 1535 1535 1535 1535 1535 1535 1535 1536 1536
1485 1486 1483 1489 1495 1499 1501 1502 1505 1507 1509 1511 1513 1516 1517 1519 1522 1523 1525 1526 1527 1527 1527 1528 1528 1529 1530 1531 1531 1532 1532 1533 1533 1533 1533 1534 1534 1534 1533 1533 1533 1534 1534 1535
1492 1494 1491 1494 1498 1501 1503 1505 1507 1508 1510 1513 1515 1517 1518 1520 1522 1524 1525 1526 1527 1528 1528 1529 1529 1530 1530 1531 1531 1532 1531 1531 1531 1532 1532 1532 1532 1532 1532 1531 1532 1533 1533 1534
1491 1492 1491 1495 1501 1503 1505 1507 1508 1510 1512 1514 1516 1518 1519 1521 1522 1524 1525 1527 1527 1528 1528 1529 1529 1530 1530 1531 1531 1531 1531 1531 1530 1530 1530 1530 1531 1530 1530 1531 1531 1531 1531 1532
1493 1493 1491 1493 1500 1501 1506 1508 1510 1512 1513 1515 1517 1519 1520 1521 1523 1524 1526 1527 1527 1528 1529 1529 1530 1530 1530 1530 1530 1530 1530 1530 1529 1529 1528 1529 1529 1529 1529 1529 1529 1529 1530 1530